Weather History for South Bend, IN

Change the Weather History Date:

Thursday, February 7, 2013

  Actual Average Record
Temperature  
Mean Temperature 34 °F 26 °F  
Max Temperature 40 °F 33 °F 63 °F (1925)
Min Temperature 27 °F 19 °F -14 °F (1978)
Degree Days  
Heating Degree Days 31 39  
Month to date heating degree days 306 278  
Since 1 July heating degree days 3654 3926  
Cooling Degree Days 0 0  
Month to date cooling degree days 0 0  
Year to date cooling degree days 0 0  
Moisture  
Dew Point 27 °F    
Average Humidity 78    
Maximum Humidity 96    
Minimum Humidity 59    
Precipitation  
Precipitation 0.17 in 0.06 in 0.90 in (1933)
Month to date precipitation 0.77 0.43  
Year to date precipitation 5.77 2.72  
Snow  
Snow 0.00 in - - ()
Month to date snowfall 10.7  
Snow Depth 9.00 in    
Sea Level Pressure  
Sea Level Pressure 30.01 in    
Wind  
Wind Speed 8 mph (ESE)    
Max Wind Speed 16 mph    
Max Gust Speed 20 mph    
Visibility 5 miles    
Events Rain    
T = Trace of Precipitation, MM = Missing Value Source: NWS Daily Summary

Daily Weather History Graph

Daily Weather History Graph

Search for Another Location

Airport:

Trip Planner

Search our weather history database for the weather conditions in past years. The results will help you decide how hot, cold, wet, or windy it might be!

Date:

Astronomy

Feb. 07, 2013 Rise Set
Actual Time 7:50 AM EST 6:08 PM EST
Civil Twilight 7:21 AM EST 6:37 PM EST
Nautical Twilight 6:48 AM EST 7:10 PM EST
Astronomical Twilight 6:16 AM EST 7:43 PM EST
Moon 5:30 AM EST (2/7) 3:31 PM EST (2/7)
Length of Visible Light 11h 16m
Length of Day
10h 18m
Waning Crescent, 9% of the Moon is Illuminated
Feb 7
Waning Crescent
Feb 10
New
Feb 17
First Quarter
Feb 25
Full
Mar 4
Last Quarter

Hourly Weather History & Observations

Time (EST) Temp. Windchill Dew Point Humidity Pressure Visibility Wind Dir Wind Speed Gust Speed Precip Events Conditions
12:54 AM 30.9 °F 21.2 °F 24.1 °F 76% 30.19 in 8.0 mi SSE 12.7 mph - N/A   Overcast
1:54 AM 30.9 °F 23.5 °F 24.1 °F 76% 30.18 in 7.0 mi SE 8.1 mph - N/A   Mostly Cloudy
2:54 AM 30.0 °F 23.2 °F 24.1 °F 79% 30.18 in 7.0 mi SE 6.9 mph - N/A   Clear
3:54 AM 28.0 °F 21.7 °F 23.0 °F 81% 30.17 in 5.0 mi ESE 5.8 mph - N/A   Haze
4:54 AM 28.0 °F 20.8 °F 23.0 °F 81% 30.17 in 6.0 mi ESE 6.9 mph - N/A   Haze
5:54 AM 28.0 °F 22.8 °F 21.9 °F 78% 30.17 in 6.0 mi East 4.6 mph - N/A   Haze
6:54 AM 28.0 °F 19.3 °F 21.9 °F 78% 30.17 in 6.0 mi SE 9.2 mph - N/A   Haze
7:54 AM 28.9 °F 21.1 °F 23.0 °F 78% 30.15 in 5.0 mi SE 8.1 mph - N/A   Haze
8:54 AM 28.9 °F 22.8 °F 24.1 °F 82% 30.14 in 4.0 mi ESE 5.8 mph - N/A   Haze
9:54 AM - - - N/A% 30.09 in 4.0 mi North - - N/A   Haze
10:54 AM 32.0 °F 22.5 °F 25.0 °F 75% 30.09 in - SE 12.7 mph - N/A   Unknown
11:54 AM 34.0 °F 25.5 °F 26.1 °F 73% 30.07 in 5.0 mi SE 11.5 mph - N/A   Haze
12:54 PM 37.9 °F 30.9 °F 27.0 °F 65% 30.04 in 6.0 mi SSE 10.4 mph - N/A   Haze
1:54 PM 39.0 °F 31.8 °F 27.0 °F 62% 29.99 in 6.0 mi SE 11.5 mph - N/A   Haze
2:54 PM 39.9 °F 33.9 °F 27.0 °F 60% 29.96 in 6.0 mi SE 9.2 mph - N/A   Haze
3:54 PM 39.9 °F 33.4 °F 28.0 °F 63% 29.94 in 6.0 mi ESE 10.4 mph - N/A   Haze
4:54 PM 39.0 °F 31.4 °F 28.0 °F 65% 29.90 in 6.0 mi ESE 12.7 mph - N/A   Haze
5:54 PM 39.0 °F 32.3 °F 28.0 °F 65% 29.88 in 6.0 mi ESE 10.4 mph - N/A   Haze
6:54 PM 37.9 °F 33.5 °F 28.9 °F 70% 29.88 in 7.0 mi ESE 5.8 mph - 0.00 in   Overcast
7:54 PM 36.0 °F - 30.9 °F 82% 29.87 in 4.0 mi Calm Calm - 0.03 in Rain Light Rain
8:54 PM 35.1 °F 31.0 °F 32.0 °F 89% 29.87 in 2.5 mi ENE 4.6 mph - 0.08 in Rain Rain
9:11 PM 33.8 °F 29.6 °F 32.0 °F 93% 29.84 in 2.5 mi ENE 4.6 mph - 0.02 in Rain Light Rain
9:43 PM 33.8 °F 27.7 °F 30.2 °F 87% 29.81 in 2.5 mi East 6.9 mph - 0.03 in Rain Light Rain
9:54 PM 34.0 °F 29.8 °F 32.0 °F 92% 29.81 in 2.5 mi ENE 4.6 mph - 0.03 in Rain Light Rain
10:07 PM 33.8 °F 29.6 °F 32.0 °F 93% 29.82 in 2.5 mi NNE 4.6 mph - 0.01 in Rain Light Rain
10:54 PM 34.0 °F 29.8 °F 32.0 °F 92% 29.84 in 2.0 mi NW 4.6 mph - 0.03 in Rain Light Rain
11:54 PM 34.0 °F 29.8 °F 32.0 °F 92% 29.84 in 2.0 mi North 4.6 mph - 0.00 in   Overcast